TimePDT,TemperatureF,Dew PointF,Humidity,Sea Level PressureIn,VisibilityMPH,Wind Direction,Wind SpeedMPH,Gust SpeedMPH,PrecipitationIn,Events,Conditions,WindDirDegrees,DateUTC
12:53 AM,63.0,42.1,46,29.92,10.0,North,6.9,-,N/A,,Clear,350,2013-05-15 07:53:00
1:53 AM,60.1,42.1,51,29.93,10.0,NW,5.8,-,N/A,,Clear,310,2013-05-15 08:53:00
2:53 AM,57.9,43.0,58,29.93,10.0,NW,5.8,-,N/A,,Clear,320,2013-05-15 09:53:00
3:53 AM,57.0,43.0,59,29.94,10.0,NW,4.6,-,N/A,,Clear,320,2013-05-15 10:53:00
4:53 AM,55.9,43.0,62,29.95,10.0,NNW,4.6,-,N/A,,Clear,340,2013-05-15 11:53:00
5:53 AM,55.0,44.1,67,29.96,10.0,ENE,4.6,-,N/A,,Clear,60,2013-05-15 12:53:00
6:53 AM,55.9,44.1,64,29.98,10.0,East,3.5,-,N/A,,Clear,80,2013-05-15 13:53:00
7:53 AM,60.1,44.1,55,29.99,10.0,NE,3.5,-,N/A,,Clear,50,2013-05-15 14:53:00
8:53 AM,64.9,44.1,47,29.99,10.0,Calm,Calm,-,N/A,,Clear,0,2013-05-15 15:53:00
9:53 AM,70.0,44.1,39,30.00,10.0,Calm,Calm,-,N/A,,Clear,0,2013-05-15 16:53:00
10:53 AM,73.9,44.1,34,30.00,10.0,Variable,4.6,-,N/A,,Clear,0,2013-05-15 17:53:00
11:53 AM,77.0,44.1,31,29.99,10.0,NNW,10.4,-,N/A,,Clear,330,2013-05-15 18:53:00
12:53 PM,80.1,42.1,26,29.98,10.0,NNW,11.5,17.3,N/A,,Clear,340,2013-05-15 19:53:00
1:53 PM,81.0,39.0,22,29.97,10.0,NW,11.5,19.6,N/A,,Clear,320,2013-05-15 20:53:00
2:53 PM,82.9,39.0,21,29.96,10.0,NW,12.7,-,N/A,,Clear,320,2013-05-15 21:53:00
3:53 PM,80.1,39.0,23,29.95,10.0,NNW,16.1,24.2,N/A,,Clear,340,2013-05-15 22:53:00
4:53 PM,79.0,37.9,23,29.94,10.0,NNW,16.1,21.9,N/A,,Clear,330,2013-05-15 23:53:00
5:53 PM,75.9,42.1,30,29.94,10.0,NW,13.8,-,N/A,,Clear,320,2013-05-16 00:53:00
6:53 PM,73.9,43.0,33,29.94,10.0,NW,16.1,23.0,N/A,,Clear,320,2013-05-16 01:53:00
7:53 PM,70.0,44.1,39,29.95,10.0,NW,15.0,-,N/A,,Clear,310,2013-05-16 02:53:00
8:53 PM,68.0,45.0,43,29.96,10.0,NNW,6.9,-,N/A,,Clear,340,2013-05-16 03:53:00
9:53 PM,66.0,46.0,48,29.96,10.0,NNW,8.1,-,N/A,,Clear,330,2013-05-16 04:53:00
10:53 PM,64.0,46.0,52,29.96,10.0,North,9.2,-,N/A,,Clear,350,2013-05-16 05:53:00
11:53 PM,62.1,46.9,58,29.95,10.0,North,8.1,-,N/A,,Clear,350,2013-05-16 06:53:00